This is the latest recevied weather packets stored in our database for station/object OE-11007. If no packets are shown the sender has not sent any weather packets the latest 10 day(s).
| Time | Temp. | Humidity | Pressure | Rain* | Wind** | Luminosity | Snow |
|---|---|---|---|---|---|---|---|
| 1787824511 | 23.33° C | 61% | 1014.4 hPa | 0 mm | - | 539 W/m² | - |
| 1787823684 | 22.78° C | 61% | 1014.6 hPa | 0 mm | - | 664 W/m² | - |
| 1787823311 | 22.78° C | 60% | 1014.8 hPa | 0 mm | - | 705 W/m² | - |
| 1787822710 | 22.22° C | 63% | 1014.8 hPa | 0 mm | - | 664 W/m² | - |
| 1787821884 | 21.67° C | 62% | 1014.9 hPa | 0 mm | - | 553 W/m² | - |
| 1787821510 | 21.67° C | 64% | 1014.8 hPa | 0 mm | - | 581 W/m² | - |
| 1787820911 | 21.11° C | 64% | 1014.9 hPa | 0 mm | - | 539 W/m² | - |
| 1787820084 | 21.11° C | 64% | 1014.9 hPa | 0 mm | - | 616 W/m² | - |
| 1787819711 | 21.11° C | 64% | 1014.8 hPa | 0 mm | - | 602 W/m² | - |
| 1787819111 | 21.11° C | 64% | 1015.1 hPa | 0 mm | - | 560 W/m² | - |
| 1787818284 | 21.11° C | 64% | 1014.9 hPa | 0 mm | - | 539 W/m² | - |
| 1787817910 | 20.56° C | 64% | 1015 hPa | 0 mm | - | 512 W/m² | - |
| 1787817310 | 21.11° C | 64% | 1015.1 hPa | 0 mm | - | 484 W/m² | - |
| 1787816484 | 20.56° C | 64% | 1015.1 hPa | 0 mm | - | 463 W/m² | - |
| 1787816110 | 20.56° C | 65% | 1015.1 hPa | 0 mm | - | 436 W/m² | - |
| 1787814684 | 19.44° C | 67% | 1015.4 hPa | 0 mm | - | 367 W/m² | - |
| 1787814311 | 18.89° C | 69% | 1015.4 hPa | 0 mm | - | 228 W/m² | - |
| 1787813711 | 18.89° C | 69% | 1015.3 hPa | 0 mm | - | 263 W/m² | - |
| 1787812884 | 18.89° C | 72% | 1015.4 hPa | 0 mm | - | 228 W/m² | - |
| 1787812511 | 19.44° C | 72% | 1015.3 hPa | 0 mm | - | 304 W/m² | - |
| 1787811911 | 18.33° C | 75% | 1015.8 hPa | 0 mm | - | 214 W/m² | - |
| 1787811323 | 17.78° C | 78% | 1016 hPa | 0 mm | - | 194 W/m² | - |
| 1787810711 | 17.22° C | 82% | 1016.1 hPa | 0 mm | - | 173 W/m² | - |
| 1787810111 | 17.22° C | 80% | 1016.4 hPa | 0 mm | - | 187 W/m² | - |
| 1787809284 | 17.22° C | 78% | 1016.6 hPa | 0 mm | - | 173 W/m² | - |
* Rain latest hour (hover to see other rain measurements)
** Current wind speed in m/s (hover to see current wind gust speed)